Temperature
2 2 2 2 2 2 2 4 5 5 4 5 5 4 3 2 1 1 1 0 0 0 0 0 0 1 0 1 1 1 1 1 1 1 1 1 1 1 1 1 1 1 1 1
1 1 1 1 2 2 2 2 3 3 3 4 3 2 2 1 1 0 0 -0 -0 -0 -0 -0 0 0 0 0 0 0 0 0 0 -0 -0 -0 -0 -0 -0 -0 0 0 -0 0
2 0 1 2 2 1 1 1 2 3 4 3 2 2 1 1 0 0 0 -0 -0 -0 -0 -0 -0 -0 -0 -0 -0 -0 -1 -1 -1 -1 -1 -1 -1 -1 -1 -1 -1 -1 -1 -1
1 1 2 4 1 1 1 1 1 1 2 2 1 1 0 0 0 -0 -0 -0 -0 -0 -0 -1 -1 -1 -1 -1 -1 -1 -1 -1 -1 -2 -1 -2 -2 -2 -2 -2 -2 -1 -2 -1
1 2 3 3 1 -0 0 1 0 0 0 0 -1 -1 0 -0 -0 -0 -1 -1 -1 -1 -1 -1 -1 -1 -1 -1 -1 -2 -2 -2 -2 -2 -2 -2 -2 -2 -2 -2 -2 -2 -2 -2
0 2 3 3 0 -1 0 2 0 -1 -0 -1 -1 1 2 -0 -1 -1 -1 -1 -1 -1 -1 -1 -1 -2 -1 -2 -2 -2 -2 -2 -2 -3 -3 -3 -3 -3 -3 -3 -3 -3 -3 -3
0 1 3 1 -2 -1 2 2 -0 -1 -1 -2 -1 0 -1 -1 -1 -1 -1 -1 -1 -1 -2 -2 -2 -2 -2 -2 -2 -2 -3 -3 -3 -3 -3 -3 -3 -3 -3 -3 -3 -3 -3 -3
-0 1 2 -1 -2 0 1 -1 -1 -1 -2 -2 -2 -2 -2 -2 -2 -2 -2 -2 -2 -2 -2 -2 -2 -2 -2 -2 -2 -3 -3 -3 -3 -3 -3 -3 -4 -4 -4 -4 -4 -4 -4 -4
0 1 -1 -2 -2 -1 -2 -2 -2 -2 -2 -2 -2 -2 -3 -3 -2 -2 -2 -2 -2 -2 -2 -2 -3 -3 -3 -3 -3 -3 -3 -3 -3 -4 -4 -4 -4 -4 -4 -4 -5 -4 -4 -4
-2 -1 -2 -3 -2 -2 -2 -2 -2 -2 -2 -2 -3 -3 -3 -3 -3 -3 -3 -3 -3 -3 -3 -3 -3 -3 -3 -3 -3 -4 -4 -4 -4 -4 -4 -4 -4 -4 -5 -5 -5 -5 -5 -5
-2 -2 -3 -3 -3 -2 -2 -2 -2 -3 -3 -3 -3 -3 -3 -4 -4 -3 -3 -3 -4 -4 -3 -3 -3 -3 -4 -4 -4 -4 -4 -4 -4 -4 -5 -5 -5 -5 -5 -5 -5 -5 -5 -5
-0 -1 -2 -2 -2 -2 -2 -2 -3 -3 -3 -3 -3 -4 -4 -4 -4 -4 -4 -4 -4 -4 -4 -4 -4 -4 -4 -4 -4 -5 -5 -5 -5 -5 -5 -5 -5 -5 -5 -5 -5 -6 -6 -6
-3 -3 -3 -3 -2 -3 -3 -3 -3 -3 -3 -4 -4 -4 -4 -4 -4 -4 -4 -4 -4 -4 -4 -4 -4 -5 -5 -5 -5 -5 -5 -5 -5 -5 -5 -5 -6 -6 -6 -6 -6 -6 -6 -6
-3 -3 -4 -3 -3 -3 -4 -4 -4 -4 -4 -4 -4 -4 -4 -4 -4 -4 -4 -4 -5 -5 -5 -5 -5 -5 -5 -5 -5 -5 -5 -6 -6 -6 -6 -6 -6 -6 -6 -6 -6 -6 -6 -6
-4 -4 -4 -4 -4 -4 -4 -4 -4 -4 -4 -5 -5 -5 -5 -5 -5 -5 -5 -5 -5 -5 -5 -5 -5 -5 -5 -5 -5 -6 -6 -6 -6 -6 -6 -6 -6 -6 -6 -6 -6 -6 -6 -6
-4 -4 -4 -4 -5 -5 -5 -5 -5 -5 -5 -5 -5 -5 -5 -5 -5 -5 -5 -5 -5 -5 -5 -5 -5 -5 -6 -6 -6 -6 -6 -6 -6 -6 -6 -6 -7 -7 -7 -7 -7 -7 -6 -6
-5 -5 -5 -5 -5 -5 -5 -5 -5 -5 -5 -5 -5 -5 -5 -5 -5 -5 -5 -6 -6 -6 -6 -6 -6 -6 -6 -6 -6 -6 -6 -6 -6 -6 -6 -7 -7 -7 -7 -7 -7 -7 -7 -7
-5 -5 -5 -5 -5 -5 -5 -5 -5 -5 -5 -5 -6 -6 -6 -6 -6 -6 -6 -6 -6 -6 -6 -6 -6 -6 -6 -6 -6 -6 -6 -6 -7 -7 -7 -7 -7 -7 -7 -7 -7 -7 -7 -7
-5 -5 -5 -5 -5 -5 -5 -5 -5 -6 -6 -6 -6 -6 -6 -6 -6 -6 -6 -6 -6 -6 -6 -6 -6 -6 -6 -6 -6 -7 -7 -7 -7 -7 -7 -7 -7 -7 -7 -7 -7 -7 -7 -7
-5 -5 -5 -5 -5 -6 -6 -6 -6 -6 -6 -6 -6 -6 -6 -6 -6 -6 -6 -7 -7 -7 -7 -7 -7 -7 -7 -7 -7 -7 -7 -7 -7 -7 -7 -7 -8 -7 -7 -7 -7 -7 -7 -7
-5 -5 -6 -6 -6 -6 -6 -6 -6 -6 -6 -6 -6 -6 -6 -7 -7 -7 -7 -7 -7 -7 -7 -7 -7 -7 -7 -7 -7 -7 -7 -7 -7 -7 -8 -8 -8 -8 -8 -8 -8 -8 -8 -7
-6 -6 -6 -6 -6 -6 -6 -6 -6 -6 -6 -6 -7 -7 -7 -7 -7 -7 -7 -7 -7 -7 -7 -7 -7 -7 -7 -7 -7 -7 -7 -7 -8 -8 -8 -8 -8 -8 -8 -8 -8 -8 -8 -8
-6 -6 -6 -6 -6 -7 -7 -7 -7 -7 -7 -7 -7 -7 -7 -7 -7 -7 -7 -7 -7 -7 -7 -7 -7 -7 -7 -8 -8 -8 -8 -8 -8 -8 -8 -8 -8 -8 -8 -8 -8 -8 -8 -8
-6 -7 -7 -7 -7 -7 -7 -7 -7 -7 -7 -7 -7 -7 -7 -7 -7 -8 -8 -8 -8 -8 -8 -8 -8 -8 -8 -8 -8 -8 -8 -8 -8 -8 -8 -8 -8 -8 -8 -8 -8 -8 -8 -8
-7 -7 -7 -7 -7 -7 -7 -7 -7 -7 -7 -7 -7 -7 -8 -8 -8 -8 -8 -8 -8 -8 -8 -8 -8 -8 -8 -8 -8 -8 -8 -8 -8 -8 -8 -8 -8 -8 -8 -8 -8 -8 -8 -8
-7 -7 -7 -7 -7 -7 -7 -7 -7 -7 -8 -7 -8 -8 -8 -8 -8 -8 -8 -8 -8 -8 -8 -8 -8 -8 -8 -8 -8 -8 -8 -8 -8 -8 -8 -8 -8 -8 -8 -8 -8 -8 -8 -8
-8 -8 -8 -8 -8 -8 -8 -8 -8 -8 -8 -8 -8 -8 -8 -8 -8 -8 -8 -8 -8 -8 -8 -8 -8 -8 -8 -8 -8 -8 -9 -9 -9 -9 -9 -9 -9 -8 -8 -8 -8 -8 -8 -8
Wind_Speed
4 3 3 5 8 10 12 12 10 10 10 11 8 6 5 4 4 3 3 3 3 3 2 2 2 2 2 2 2 2 2 2 2 3 3 3 3 4 4 4 4 3 4 4
3 3 4 6 9 11 13 12 13 12 13 10 7 5 5 5 5 5 4 4 3 3 3 3 3 3 3 2 2 2 2 3 3 3 3 3 3 4 3 3 3 3 4 4
3 1 3 8 9 11 9 9 10 13 11 6 6 7 6 6 6 6 5 5 4 4 4 4 3 3 3 2 2 2 2 3 3 3 3 3 3 3 3 3 3 4 4 4
2 2 7 3 1 5 8 9 9 8 7 6 7 6 6 6 6 6 5 5 5 4 4 3 3 3 3 2 2 2 2 3 3 3 3 3 3 3 3 3 3 3 4 4
3 5 7 4 2 3 5 6 7 9 8 6 5 5 6 4 5 5 5 5 4 4 4 3 3 3 2 3 3 3 3 3 3 3 4 4 4 4 3 3 3 4 4 4
4 4 6 2 2 2 2 5 4 6 7 5 2 4 3 1 3 4 3 3 3 3 3 3 3 2 3 3 3 4 4 3 3 3 4 4 4 4 4 3 4 4 4 4
7 7 7 1 2 4 5 3 1 4 5 5 5 5 3 2 3 3 3 2 2 2 2 3 2 3 3 4 4 4 3 3 4 4 4 4 4 4 4 4 4 4 4 4
6 7 7 3 5 6 3 2 1 3 4 4 5 4 4 3 3 3 3 3 2 2 3 2 2 3 4 4 3 3 3 3 4 4 4 3 4 4 4 4 4 4 4 4
7 6 1 5 4 3 2 2 3 4 4 4 4 4 4 4 4 4 4 3 3 3 3 3 2 3 4 3 2 2 3 3 3 3 3 3 4 4 3 3 3 3 3 4
5 6 5 5 5 4 4 5 4 4 4 4 5 5 4 4 4 4 4 4 3 3 3 3 3 3 4 3 2 2 3 3 3 3 3 3 3 3 3 3 3 4 4 4
6 5 4 5 6 6 4 4 4 3 3 4 4 5 4 4 4 4 4 3 3 3 4 4 3 3 3 2 2 3 3 3 3 3 3 3 3 3 4 4 4 5 4 5
6 4 4 4 3 4 4 5 4 4 4 4 4 5 4 4 4 4 4 4 3 4 4 4 3 3 3 2 3 3 3 3 3 3 3 3 3 4 4 5 6 7 7 7
4 2 3 4 4 3 3 4 4 4 4 4 3 4 4 4 4 4 4 4 4 5 4 4 4 4 3 3 3 4 4 4 3 3 3 3 3 3 4 4 4 5 6 7
3 2 3 3 3 3 3 3 3 3 3 3 3 3 3 3 4 4 5 5 4 4 4 4 4 4 4 3 3 4 4 4 4 3 3 4 4 4 4 4 4 4 5 6
4 4 4 3 2 2 2 1 2 2 2 2 2 3 3 4 5 5 5 4 4 4 4 4 4 4 3 3 3 4 4 3 3 3 3 4 4 4 4 4 4 4 4 4
3 3 3 3 3 3 2 2 3 4 3 3 3 3 3 4 4 5 4 3 3 4 4 4 5 4 3 3 3 3 3 4 4 3 3 3 3 3 3 4 4 4 4 4
3 3 3 4 4 4 4 4 4 4 4 4 4 3 3 3 3 4 4 3 4 4 5 5 5 4 4 4 4 3 3 3 4 3 3 3 3 3 4 4 4 4 5 5
6 5 5 5 5 5 5 4 4 4 4 3 3 2 2 3 4 4 4 3 3 4 4 4 4 4 4 3 3 3 3 3 3 3 3 3 3 3 4 4 4 5 5 5
4 4 4 4 4 4 4 3 3 3 2 2 2 2 3 3 4 4 3 3 3 4 4 3 4 3 3 4 3 3 3 3 3 3 3 4 4 3 3 4 4 4 4 4
2 2 2 2 2 2 2 2 2 2 2 2 2 2 2 3 3 3 3 3 3 3 3 4 3 3 3 3 3 2 3 3 3 3 3 3 3 3 3 4 4 4 4 5
1 1 1 1 1 1 1 1 1 2 2 1 2 2 3 3 2 2 2 3 2 2 3 3 2 2 3 2 2 2 3 3 3 3 3 3 3 3 4 4 4 4 4 5
1 1 1 1 1 1 1 1 1 1 1 1 1 2 2 3 3 3 3 3 3 3 3 2 2 3 2 2 2 2 2 3 3 3 3 3 3 4 4 4 4 4 4 5
1 1 1 1 1 1 1 1 1 1 1 2 2 2 2 3 2 2 3 2 2 3 3 2 3 3 3 2 2 2 2 3 3 3 3 3 3 4 4 5 4 4 5 5
1 1 1 0 0 0 1 2 1 1 2 2 2 2 2 2 2 2 3 4 4 4 2 3 3 3 2 1 2 2 2 3 3 3 3 3 3 4 4 4 4 4 5 5
0 0 0 0 0 1 1 2 2 1 1 2 2 2 2 2 2 3 3 3 3 3 2 3 3 3 2 2 2 2 2 3 3 3 3 3 3 4 4 4 4 5 5 5
1 1 1 1 1 1 1 1 1 1 2 2 2 2 2 2 2 2 2 2 3 3 2 2 2 2 2 2 2 3 3 3 3 3 3 4 4 4 4 4 5 5 5 5
0 0 1 1 1 1 1 1 2 2 2 2 2 2 2 2 2 2 2 2 2 2 2 2 2 2 2 2 2 3 3 3 3 3 3 3 4 4 4 5 4 5 5 5
Wind_Direction
261 270 229 238 228 212 217 228 238 249 249 263 264 269 276 276 269 268 269 273 276 283 283 280 289 304 307 308 313 315 313 311 314 316 317 315 309 305 303 304 306 306 303 301
246 255 252 255 250 233 235 238 243 256 263 270 269 264 266 265 255 256 263 266 269 275 275 270 274 287 298 303 310 311 306 307 314 314 317 314 313 309 307 307 306 305 303 303
233 278 273 257 242 223 226 227 226 238 254 261 256 257 256 261 257 251 258 263 263 267 269 267 266 268 273 283 294 295 295 300 305 305 309 312 314 310 309 306 305 302 302 299
203 187 237 252 102 216 226 239 231 249 262 259 262 273 269 259 248 249 259 263 263 264 267 267 263 258 259 261 264 272 282 290 297 301 303 305 306 307 309 308 307 305 305 303
195 234 263 263 201 188 214 252 230 239 254 269 294 286 262 235 239 254 258 261 260 258 259 258 254 247 239 249 256 260 269 280 292 294 294 297 301 302 305 306 307 307 306 306
196 229 244 259 136 161 200 254 221 223 240 254 253 255 265 234 266 263 258 259 258 257 256 247 247 232 228 245 253 259 267 275 281 282 282 285 291 297 298 294 294 302 305 305
216 235 259 263 154 165 209 263 196 216 229 225 236 263 300 295 282 261 255 261 262 256 253 251 243 223 231 244 255 267 276 277 279 278 278 279 285 287 291 290 292 298 300 301
202 223 246 151 157 200 257 355 238 236 235 241 260 278 277 272 267 262 266 269 270 268 274 269 243 228 237 251 267 277 276 276 279 282 285 281 281 284 285 287 289 292 296 300
207 226 311 177 213 246 287 257 265 260 252 244 255 265 266 269 271 271 273 277 279 268 279 279 256 241 248 264 273 270 272 274 280 286 286 281 277 279 281 282 282 287 289 293
242 254 254 236 248 261 256 262 271 263 255 241 244 252 260 267 275 280 280 277 272 267 270 279 280 268 261 266 258 249 258 270 278 281 287 288 282 274 272 273 275 279 283 287
245 271 280 248 243 256 261 266 269 268 257 247 242 249 256 265 272 274 275 273 265 261 266 273 281 280 277 262 242 241 253 264 272 275 278 285 284 282 277 272 273 273 277 279
238 231 232 259 249 249 252 258 258 261 265 259 247 248 257 263 269 272 272 269 263 262 261 267 274 278 279 260 237 236 247 256 261 268 275 280 287 296 292 280 288 284 281 282
247 260 256 276 274 256 258 262 264 257 254 259 255 245 252 264 269 271 270 265 258 256 257 262 268 274 278 263 241 237 244 254 262 265 269 274 279 284 296 300 289 288 290 290
242 246 260 256 261 268 267 271 270 269 261 250 254 258 257 262 268 269 268 270 267 261 257 255 261 269 274 260 244 243 247 253 256 258 263 266 270 275 279 287 298 303 300 301
240 249 253 276 280 277 272 275 273 268 264 270 264 258 258 260 267 275 279 277 269 260 256 252 257 268 273 254 244 244 247 249 254 260 263 265 270 275 278 282 288 298 305 307
265 276 249 243 254 264 262 255 257 261 259 265 267 268 267 267 274 280 279 267 254 258 261 257 259 264 267 252 245 246 247 250 257 259 260 263 269 274 279 283 287 292 296 303
216 248 247 249 254 259 255 253 250 252 255 260 266 276 279 278 282 283 283 276 262 263 266 260 261 265 259 248 244 246 249 250 254 258 258 263 269 273 277 281 285 289 290 295
233 240 236 235 240 249 260 262 256 252 252 260 262 262 261 260 269 281 290 293 285 279 272 262 258 261 257 252 246 245 245 249 251 257 264 266 272 274 276 278 283 288 294 296
241 244 248 248 246 242 250 258 258 255 254 242 243 255 266 268 273 283 289 283 272 276 280 272 272 271 264 256 254 246 244 249 255 260 265 267 274 274 274 279 283 287 290 295
264 258 257 263 259 242 247 261 262 259 256 239 239 262 282 287 287 286 280 270 264 272 282 278 275 271 268 257 252 245 242 245 252 260 263 264 270 275 279 282 285 287 290 291
270 267 263 266 278 277 253 245 235 247 258 235 228 250 274 292 293 282 276 284 294 291 286 279 275 270 268 260 252 249 246 249 255 258 261 265 270 275 279 284 286 287 288 290
271 272 283 288 288 303 304 266 237 236 244 250 253 260 279 293 297 287 269 267 289 296 299 283 276 273 280 273 261 255 252 257 260 262 263 265 270 276 280 284 286 288 289 290
270 268 274 283 276 289 314 302 261 247 248 256 255 261 271 281 280 276 294 296 292 292 298 281 283 290 297 286 267 258 258 261 262 265 267 270 272 275 279 283 285 288 290 291
280 294 299 320 102 122 312 314 308 291 275 274 266 261 265 281 287 271 279 295 303 301 299 290 293 301 303 286 266 263 263 264 266 270 273 276 278 279 280 282 285 288 289 290
268 254 222 164 224 267 276 295 314 314 311 306 302 295 274 259 266 291 297 296 296 301 301 292 295 300 294 277 269 267 267 265 270 275 274 278 280 282 284 284 286 289 290 291
244 259 271 272 267 267 271 270 277 290 301 307 313 312 310 297 284 288 292 296 297 298 299 292 290 290 286 282 277 274 273 277 281 280 278 280 281 282 284 287 289 289 290 292
309 318 323 326 320 294 276 265 267 277 280 278 292 301 306 307 303 302 301 298 300 300 300 301 296 288 286 285 285 283 280 278 277 278 279 280 280 281 282 284 287 289 292 293
Height
1491 1491 1491 1490 1491 1493 1492 1484 1482 1475 1478 1475 1478 1480 1482 1482 1482 1482 1481 1481 1481 1480 1480 1479 1479 1478 1478 1477 1477 1477 1476 1475 1475 1474 1474 1473 1473 1472 1471 1470 1469 1469 1468 1467
1493 1493 1493 1491 1488 1488 1488 1486 1483 1481 1479 1476 1478 1480 1480 1480 1480 1480 1479 1479 1479 1478 1478 1477 1477 1476 1475 1475 1474 1474 1473 1473 1472 1471 1470 1470 1469 1468 1467 1467 1466 1465 1464 1463
1485 1494 1492 1482 1479 1482 1482 1480 1479 1476 1473 1474 1476 1476 1477 1477 1477 1477 1477 1477 1476 1476 1475 1475 1474 1473 1473 1473 1472 1471 1471 1470 1469 1468 1468 1467 1466 1465 1464 1463 1462 1462 1461 1460
1488 1493 1484 1470 1477 1477 1477 1476 1476 1474 1473 1473 1474 1474 1475 1475 1474 1474 1475 1474 1474 1473 1472 1472 1471 1471 1470 1470 1469 1469 1468 1467 1467 1466 1465 1464 1463 1462 1461 1460 1459 1458 1458 1457
1487 1480 1470 1471 1475 1476 1476 1472 1473 1473 1472 1472 1473 1473 1471 1471 1471 1472 1472 1471 1471 1470 1470 1469 1468 1468 1467 1467 1467 1466 1465 1465 1464 1464 1463 1461 1460 1459 1458 1457 1456 1455 1455 1454
1486 1478 1469 1465 1473 1475 1476 1469 1468 1469 1469 1470 1471 1469 1467 1469 1469 1468 1468 1468 1468 1467 1467 1466 1466 1465 1465 1464 1464 1463 1463 1462 1462 1461 1460 1459 1458 1457 1456 1455 1454 1452 1451 1450
1481 1475 1465 1469 1473 1475 1472 1464 1466 1466 1467 1468 1468 1467 1467 1466 1466 1466 1465 1465 1465 1464 1464 1463 1463 1462 1461 1461 1460 1460 1460 1459 1459 1458 1457 1456 1455 1454 1453 1452 1451 1449 1448 1447
1478 1475 1467 1470 1471 1470 1465 1465 1464 1465 1465 1465 1465 1464 1464 1463 1463 1463 1462 1462 1462 1461 1460 1460 1460 1459 1458 1458 1458 1457 1457 1456 1456 1455 1454 1453 1452 1451 1450 1449 1448 1446 1445 1444
1469 1466 1465 1466 1465 1465 1465 1464 1463 1463 1463 1463 1462 1462 1461 1461 1460 1460 1460 1459 1459 1458 1457 1457 1457 1456 1455 1455 1454 1454 1453 1453 1453 1452 1451 1450 1449 1448 1447 1446 1445 1444 1442 1441
1469 1463 1464 1464 1463 1463 1462 1462 1461 1461 1461 1460 1460 1459 1459 1458 1457 1457 1456 1456 1456 1455 1454 1454 1453 1453 1452 1452 1451 1451 1450 1450 1450 1449 1448 1447 1446 1445 1444 1443 1442 1441 1440 1438
1465 1462 1461 1460 1460 1459 1459 1459 1459 1458 1458 1458 1457 1456 1456 1455 1454 1454 1453 1453 1453 1452 1451 1450 1450 1449 1449 1448 1448 1448 1447 1447 1446 1446 1445 1444 1443 1442 1441 1440 1439 1438 1437 1436
1456 1457 1458 1456 1456 1456 1456 1456 1456 1455 1455 1455 1454 1453 1453 1452 1452 1451 1450 1450 1449 1449 1448 1447 1447 1446 1446 1445 1445 1444 1444 1444 1443 1443 1442 1441 1440 1439 1438 1437 1436 1435 1434 1433
1455 1454 1454 1454 1454 1453 1453 1453 1453 1452 1452 1451 1451 1451 1450 1449 1448 1448 1447 1447 1446 1445 1445 1444 1444 1444 1443 1443 1442 1442 1441 1441 1440 1440 1439 1438 1437 1435 1434 1433 1432 1431 1430 1429
1452 1452 1452 1451 1451 1451 1450 1450 1450 1449 1449 1448 1448 1447 1447 1446 1445 1445 1444 1443 1443 1442 1442 1441 1441 1441 1441 1440 1440 1439 1439 1438 1437 1437 1436 1435 1434 1433 1431 1430 1428 1427 1426 1425
1449 1449 1449 1448 1448 1448 1447 1447 1447 1446 1446 1445 1445 1444 1444 1443 1442 1441 1441 1440 1440 1439 1438 1438 1438 1438 1438 1437 1437 1436 1436 1435 1434 1434 1433 1432 1431 1430 1428 1427 1425 1424 1422 1422
1446 1446 1446 1445 1445 1445 1444 1444 1443 1443 1443 1442 1442 1441 1440 1440 1439 1438 1438 1437 1436 1436 1435 1435 1435 1435 1435 1434 1434 1433 1433 1432 1431 1430 1430 1429 1428 1427 1425 1424 1423 1421 1420 1418
1443 1442 1442 1442 1441 1441 1441 1441 1441 1440 1439 1439 1438 1438 1437 1436 1436 1435 1434 1434 1433 1433 1432 1432 1432 1432 1431 1431 1431 1430 1430 1429 1428 1427 1427 1426 1425 1424 1423 1421 1420 1419 1417 1416
1440 1440 1439 1439 1439 1438 1438 1438 1438 1437 1437 1436 1435 1435 1434 1433 1432 1432 1431 1430 1430 1430 1429 1429 1429 1429 1428 1428 1428 1427 1427 1426 1425 1425 1424 1423 1422 1421 1420 1419 1417 1416 1414 1413
1437 1437 1437 1437 1436 1436 1435 1435 1435 1434 1434 1433 1433 1432 1431 1431 1430 1429 1428 1428 1427 1426 1426 1426 1426 1426 1425 1425 1425 1424 1424 1423 1423 1422 1421 1420 1419 1418 1417 1415 1414 1413 1411 1410
1435 1435 1435 1435 1434 1434 1433 1433 1432 1432 1432 1431 1431 1430 1429 1428 1428 1427 1426 1425 1424 1424 1423 1423 1423 1422 1422 1422 1422 1421 1421 1420 1419 1419 1418 1417 1416 1415 1414 1413 1411 1410 1408 1407
1433 1433 1433 1433 1432 1432 1431 1431 1431 1430 1430 1429 1429 1428 1427 1426 1426 1425 1423 1423 1423 1422 1421 1421 1420 1420 1420 1419 1419 1418 1418 1417 1416 1416 1415 1414 1413 1412 1411 1410 1408 1407 1405 1404
1431 1431 1431 1431 1430 1430 1430 1429 1429 1429 1428 1427 1427 1426 1425 1424 1424 1423 1422 1421 1420 1420 1419 1418 1418 1417 1417 1417 1416 1416 1415 1414 1413 1413 1412 1411 1410 1409 1408 1407 1405 1404 1403 1401
1430 1430 1430 1429 1429 1428 1428 1428 1427 1427 1426 1426 1425 1424 1423 1422 1421 1420 1420 1420 1418 1418 1417 1416 1416 1415 1415 1414 1414 1413 1412 1411 1411 1410 1409 1408 1407 1406 1405 1404 1402 1401 1400 1398
1429 1428 1428 1428 1427 1427 1426 1426 1426 1425 1425 1424 1423 1423 1422 1421 1420 1419 1418 1417 1417 1416 1415 1414 1414 1413 1412 1412 1411 1410 1410 1409 1408 1407 1406 1405 1404 1403 1402 1401 1399 1398 1397 1395
1427 1427 1427 1426 1426 1425 1425 1424 1424 1424 1423 1422 1422 1421 1420 1419 1418 1417 1417 1416 1415 1414 1413 1413 1412 1411 1410 1410 1409 1408 1407 1406 1406 1405 1404 1403 1401 1400 1399 1398 1397 1395 1394 1392
1426 1425 1425 1424 1424 1423 1423 1422 1422 1421 1421 1420 1420 1419 1418 1418 1417 1416 1415 1414 1413 1412 1411 1410 1410 1409 1408 1407 1406 1406 1405 1404 1403 1402 1401 1400 1399 1397 1396 1395 1394 1393 1391 1390
1424 1424 1423 1423 1422 1422 1421 1421 1420 1420 1419 1419 1418 1417 1417 1416 1415 1414 1413 1412 1411 1410 1409 1408 1407 1407 1406 1405 1404 1403 1402 1401 1400 1399 1398 1397 1396 1395 1394 1393 1391 1390 1389 1387